Regional Weather Roundup
Issued by NWS Newport/Morehead, NC

Current Version | Previous Version | Graphics & Text | Print | Product List | Glossary Off
Versions: 1 2 3 4 5 6 7 8 9 10 11 12 13 14 15 16 17 18 19 20 21 22 23 24 25 26 27 28 29 30 31 32 33 34 35 36 37 38 39 40 41 42 43 44 45 46 47 48 49 50

000
ASUS42 KMHX 220022
RWRMHX
WEATHER ROUNDUP FOR EASTERN NORTH CAROLINA
NATIONAL WEATHER SERVICE NEWPORT/MOREHEAD CITY NC
800 PM EDT THU AUG 21 2014

NOTE: "FAIR" INDICATES FEW OR NO CLOUDS BELOW 12,000 FEET
WITH NO SIGNIFICANT WEATHER AND/OR OBSTRUCTIONS TO VISIBILITY

NCZ015>017-031-032-045>047-102-103-220100-
NORTH COAST

CITY           SKY/WX    TMP DP  RH WIND       PRES   REMARKS
EDENTON        CLOUDY    81  77  88 CALM      30.01R
ELIZABETH CITY CLOUDY    82  75  79 CALM      30.01R
KITTY HAWK     CLOUDY    81  71  73 SW3       30.00R
MANTEO         CLOUDY    81  72  74 SW3       30.01R

$$

NCZ045>047-081-094-103-104-220100-
CENTRAL COAST

CITY           SKY/WX    TMP DP  RH WIND       PRES   REMARKS
FRISCO         MOCLDY    81  78  91 SW6       30.01S
SWANQUARTER      N/A     84 N/A N/A SW7       29.97S

$$

NCZ095-097-098-100-101-220100-
SOUTHERN COAST

CITY           SKY/WX    TMP DP  RH WIND       PRES   REMARKS
BEAUFORT       PTCLDY    82  76  81 S5        30.01S
CEDAR ISLAND     N/A     82 N/A N/A SW3       30.06S
JACKSONVILLE   PTCLDY    83  76  79 SW5       30.01R
NEWPORT        NOT AVBL
PINEY ISLAND   MOCLDY    83  75  77 S5        30.01R
WILMINGTON     PTCLDY    83  73  72 SW3       30.02S


$$

NCZ011>013-027>030-043-044-078>080-089-090>093-098-220100-
COASTAL PLAIN

CITY           SKY/WX    TMP DP  RH WIND       PRES   REMARKS
AHOSKIE        MOCLDY    79  76  91 CALM      30.02R
CLINTON        PTCLDY    80  76  88 CALM      30.04R
ELIZABETHTOWN  CLEAR     83  73  73 CALM      30.04R
GOLDSBORO      PTCLDY    84  78  81 CALM      30.00R
GREENVILLE     MOCLDY    81  77  89 CALM      30.03R
HAVELOCK       PTCLDY    82  73  74 CALM      30.02R
KENANSVILLE    PTCLDY    80  74  82 CALM      30.03S
KINSTON        PTCLDY    81  75  83 NW3       30.03R
NEW BERN       MOCLDY    84  75  74 S3        30.02R
RICHLANDS      PTCLDY    81  73  78 SW5       30.02R
ROANOKE RAPIDS NOT AVBL
ROCKY MOUNT    PTCLDY    80  76  87 CALM      30.02R
WASHINGTON     MOCLDY    81  76  83 CALM      30.02R
WHITEVILLE     CLEAR     79  75  87 CALM      30.03R

$$

AMZ130-135-150-152-154-156-158-170-250-252-270-ANZ085-086-088-633-658-670-220100-
MARINE OBSERVATIONS

STATION/POSITION TIME  TEMP    WIND        PRES    WAVE   SWELL
                       AIR SEA DIR/SP/G            HT/PER HT/PER
                 (UTC) (F)     (DEG/KT/KT) (MB)    (FT/S) (FT/S)
CHESAPEAKE LIGHT 0000   79     140/  3/  3 1016.6
BUOY 44014       0000   79 78  120/  4/  6 1015.9    2/ 7   2/ 7
DUCK             0000   81 80  170/  3/  3 1015.2
2E DUCK          0000                        N/A     2/ 6
OREGON INLET     0000   82 85  200/  7/  8 1015.8
BUOY 44095       0000      82                N/A     2/ 8
20E OREGON INLET NOT AVBL
HATTERAS CG      0000   82 83  220/  4/  7 1016.7
DIAMOND BUOY     0000   81     200/  6/  8 1016.3    2/ 9   2/ 9
CAPE LOOKOUT     0000   81     200/  5/  6 1016.2
BEAUFORT LAB     0000   82 83  190/  5/  6 1015.9
30 SE NEW RIVER  0000   83 83  230/  8/  8 1016.2    2/ 9   2/ 9
5 SE WRIGHTSVILL 0000   80 83  270/  6/  6   N/A
BUOY 41002       2250   82 82  250/  8/ 10 1018.6    2/ 7   2/ 7
BUOY 41004       0000   83 85  190/  6/  8 1016.3    2/ 9   2/ 9

$$



USA.gov is the U.S. government's official web portal to all federal, state and local government web resources and services.